Weather History for Jaffrey, NH

Change the Weather History Date:

Friday, June 21, 2013

  Actual Average Record
Temperature  
Mean Temperature 68 °F -  
Max Temperature 81 °F 75 °F 93 °F (2012)
Min Temperature 55 °F 53 °F 42 °F (2014)
Cooling Degree Days 2    
Growing Degree Days 18 (Base 50)    
Moisture  
Dew Point 51 °F    
Average Humidity 63    
Maximum Humidity 93    
Minimum Humidity 27    
Precipitation  
Precipitation 0.00 in - - ()
Sea Level Pressure  
Sea Level Pressure 30.27 in    
Wind  
Wind Speed 4 mph (SSW)    
Max Wind Speed 7 mph    
Max Gust Speed -    
Visibility 10 miles    
Events      
Averages and records for this station are not official NWS values.
T = Trace of Precipitation, MM = Missing Value Source: NWS Daily Summary

Daily Weather History Graph

Daily Weather History Graph

Search for Another Location

Airport:

Trip Planner

Search our weather history database for the weather conditions in past years. The results will help you decide how hot, cold, wet, or windy it might be!

Date:

Astronomy

Jun. 21, 2013 Rise Set
Actual Time 5:09 AM EDT 8:30 PM EDT
Civil Twilight 4:34 AM EDT 9:05 PM EDT
Nautical Twilight 3:48 AM EDT 9:50 PM EDT
Astronomical Twilight 2:52 AM EDT 10:47 PM EDT
Moon 6:35 PM EDT 3:24 AM EDT
Length of Visible Light 16h 30m
Length of Day
15h 20m
Waxing Gibbous, 95% of the Moon is Illuminated
Jun 21
Waxing Gibbous
Jun 23
Full
Jun 30
Last Quarter
Jul 8
New
Jul 15
First Quarter

Hourly Weather History & Observations

Time (EDT) Temp. Dew Point Humidity Pressure Visibility Wind Dir Wind Speed Gust Speed Precip Events Conditions
12:52 AM 59.0 °F 54.0 °F 83% 30.27 in 10.0 mi SSW 3.5 mph - N/A   Clear
1:52 AM 55.0 °F 53.1 °F 93% 30.27 in 10.0 mi South 3.5 mph - N/A   Clear
2:52 AM 55.9 °F 54.0 °F 93% 30.26 in 10.0 mi SSW 3.5 mph - N/A   Clear
3:52 AM 55.9 °F 53.1 °F 90% 30.26 in 10.0 mi SW 3.5 mph - N/A   Clear
4:52 AM 55.0 °F 52.0 °F 89% 30.26 in 10.0 mi South 4.6 mph - N/A   Clear
5:52 AM 55.0 °F 52.0 °F 89% 30.28 in 10.0 mi South 4.6 mph - N/A   Clear
6:52 AM 57.0 °F 53.1 °F 87% 30.28 in 10.0 mi SSW 5.8 mph - N/A   Clear
7:52 AM 60.1 °F 54.0 °F 80% 30.27 in 10.0 mi South 5.8 mph - N/A   Clear
8:52 AM 64.0 °F 55.0 °F 73% 30.28 in 10.0 mi SSE 5.8 mph - N/A   Clear
9:52 AM 70.0 °F 55.0 °F 59% 30.28 in 10.0 mi West 5.8 mph - N/A   Clear
10:52 AM 73.0 °F 46.9 °F 39% 30.29 in 10.0 mi Variable 6.9 mph - N/A   Clear
11:52 AM 75.9 °F 46.0 °F 35% 30.28 in 10.0 mi WNW 6.9 mph - N/A   Clear
12:52 PM 77.0 °F 48.9 °F 37% 30.28 in 10.0 mi Variable 6.9 mph - N/A   Partly Cloudy
1:52 PM 79.0 °F 44.1 °F 29% 30.27 in 10.0 mi Variable 4.6 mph - N/A   Clear
2:52 PM 80.1 °F 44.1 °F 28% 30.26 in 10.0 mi Variable 5.8 mph - N/A   Clear
3:52 PM 80.1 °F 45.0 °F 29% 30.26 in 10.0 mi Variable 3.5 mph - N/A   Scattered Clouds
4:52 PM 80.1 °F 44.1 °F 28% 30.25 in 10.0 mi West 4.6 mph - N/A   Scattered Clouds
5:52 PM 80.1 °F 43.0 °F 27% 30.24 in 10.0 mi Variable 3.5 mph - N/A   Clear
6:52 PM 79.0 °F 44.1 °F 29% 30.25 in 10.0 mi West 3.5 mph - N/A   Clear
7:52 PM 73.0 °F 55.9 °F 55% 30.26 in 10.0 mi Calm Calm - N/A   Clear
8:52 PM 64.9 °F 55.9 °F 73% 30.26 in 10.0 mi South 3.5 mph - N/A   Clear
9:52 PM 61.0 °F 55.9 °F 83% 30.27 in 10.0 mi South 3.5 mph - N/A   Clear
10:52 PM 59.0 °F 55.0 °F 87% 30.26 in 10.0 mi South 4.6 mph - N/A   Clear
11:52 PM 57.9 °F 55.0 °F 90% 30.27 in 10.0 mi Calm Calm - N/A   Clear